Time,TemperatureF,DewpointF,PressureIn,WindDirection,WindDirectionDegrees,WindSpeedMPH,WindSpeedGustMPH,Humidity,HourlyPrecipIn,Conditions,Clouds,dailyrainin,SoftwareType,DateUTC
2013-08-26 00:09:00,76.3,69.0,30.06,SW,231,9.0,13.0,77,0.00,,,0.00,weatherlink.com 1.10,2013-08-26 05:09:00,
2013-08-26 00:24:00,76.4,68.0,30.05,WSW,244,4.0,11.0,76,0.00,,,0.00,weatherlink.com 1.10,2013-08-26 05:24:00,
2013-08-26 00:39:00,76.4,69.0,30.05,SSW,205,8.0,11.0,77,0.00,,,0.00,weatherlink.com 1.10,2013-08-26 05:39:00,
2013-08-26 00:54:00,76.2,69.0,30.04,WSW,249,10.0,14.0,77,0.00,,,0.00,weatherlink.com 1.10,2013-08-26 05:54:00,
2013-08-26 01:09:00,75.9,69.0,30.03,SW,222,7.0,14.0,78,0.00,,,0.00,weatherlink.com 1.10,2013-08-26 06:09:00,
2013-08-26 01:24:00,75.8,68.0,30.02,SW,226,10.0,17.0,77,0.00,,,0.00,weatherlink.com 1.10,2013-08-26 06:24:00,
2013-08-26 01:39:00,75.5,67.0,30.04,WSW,248,9.0,12.0,76,0.00,,,0.00,weatherlink.com 1.10,2013-08-26 06:39:00,
2013-08-26 01:54:00,75.5,67.0,30.05,West,259,5.0,15.0,76,0.00,,,0.00,weatherlink.com 1.10,2013-08-26 06:54:00,
2013-08-26 02:09:00,75.2,68.0,30.05,WSW,242,9.0,12.0,77,0.00,,,0.00,weatherlink.com 1.10,2013-08-26 07:09:00,
2013-08-26 02:24:00,75.0,67.0,30.05,SW,217,5.0,14.0,76,0.00,,,0.00,weatherlink.com 1.10,2013-08-26 07:24:00,
2013-08-26 02:39:00,74.8,67.0,30.04,WSW,248,4.0,10.0,76,0.00,,,0.00,weatherlink.com 1.10,2013-08-26 07:39:00,
2013-08-26 02:54:00,74.3,67.0,30.03,WSW,256,8.0,10.0,77,0.00,,,0.00,weatherlink.com 1.10,2013-08-26 07:54:00,
2013-08-26 03:09:00,74.0,66.0,30.03,SW,233,5.0,11.0,77,0.00,,,0.00,weatherlink.com 1.10,2013-08-26 08:09:00,
2013-08-26 03:24:00,73.8,66.0,30.02,West,262,9.0,10.0,77,0.00,,,0.00,weatherlink.com 1.10,2013-08-26 08:24:00,
2013-08-26 03:39:00,73.9,66.0,30.02,West,266,8.0,13.0,76,0.00,,,0.00,weatherlink.com 1.10,2013-08-26 08:39:00,
2013-08-26 03:54:00,73.9,66.0,30.03,SW,233,9.0,14.0,76,0.00,,,0.00,weatherlink.com 1.10,2013-08-26 08:54:00,
2013-08-26 04:09:00,73.5,66.0,30.03,WSW,252,4.0,11.0,77,0.00,,,0.00,weatherlink.com 1.10,2013-08-26 09:09:00,
2013-08-26 04:24:00,73.1,66.0,30.04,WSW,253,5.0,10.0,77,0.00,,,0.00,weatherlink.com 1.10,2013-08-26 09:24:00,
2013-08-26 04:39:00,72.9,66.0,30.04,West,259,5.0,9.0,78,0.00,,,0.00,weatherlink.com 1.10,2013-08-26 09:39:00,
2013-08-26 04:54:00,72.7,66.0,30.03,WSW,246,5.0,10.0,78,0.00,,,0.00,weatherlink.com 1.10,2013-08-26 09:54:00,
2013-08-26 05:09:00,72.6,65.0,30.03,West,259,7.0,9.0,78,0.00,,,0.00,weatherlink.com 1.10,2013-08-26 10:09:00,
2013-08-26 05:24:00,72.4,66.0,30.03,WSW,249,3.0,10.0,79,0.00,,,0.00,weatherlink.com 1.10,2013-08-26 10:24:00,
2013-08-26 05:39:00,72.2,65.0,30.03,SW,231,5.0,8.0,79,0.00,,,0.00,weatherlink.com 1.10,2013-08-26 10:39:00,
2013-08-26 05:55:00,72.3,65.0,30.03,West,271,5.0,12.0,79,0.00,,,0.00,weatherlink.com 1.10,2013-08-26 10:55:00,
2013-08-26 06:10:00,72.4,66.0,30.04,WSW,245,5.0,11.0,79,0.00,,,0.00,weatherlink.com 1.10,2013-08-26 11:10:00,
2013-08-26 06:25:00,72.4,66.0,30.05,WSW,249,5.0,9.0,79,0.00,,,0.00,weatherlink.com 1.10,2013-08-26 11:25:00,
2013-08-26 06:40:00,72.2,66.0,30.05,WSW,255,5.0,9.0,80,0.00,,,0.00,weatherlink.com 1.10,2013-08-26 11:40:00,
2013-08-26 06:55:00,72.1,66.0,30.05,West,260,5.0,8.0,80,0.00,,,0.00,weatherlink.com 1.10,2013-08-26 11:55:00,
2013-08-26 07:10:00,72.3,66.0,30.05,WSW,239,4.0,9.0,80,0.00,,,0.00,weatherlink.com 1.10,2013-08-26 12:10:00,
2013-08-26 07:25:00,72.5,66.0,30.05,WSW,246,5.0,9.0,80,0.00,,,0.00,weatherlink.com 1.10,2013-08-26 12:25:00,
2013-08-26 07:40:00,73.0,67.0,30.04,SW,231,7.0,9.0,80,0.00,,,0.00,weatherlink.com 1.10,2013-08-26 12:40:00,
2013-08-26 07:55:00,73.5,67.0,30.05,West,261,5.0,11.0,80,0.00,,,0.00,weatherlink.com 1.10,2013-08-26 12:55:00,
2013-08-26 08:10:00,73.9,67.0,30.05,WSW,248,8.0,10.0,79,0.00,,,0.00,weatherlink.com 1.10,2013-08-26 13:10:00,
2013-08-26 08:25:00,74.4,67.0,30.05,West,273,5.0,13.0,78,0.00,,,0.00,weatherlink.com 1.10,2013-08-26 13:25:00,
2013-08-26 08:40:00,74.9,67.0,30.05,West,264,6.0,12.0,77,0.00,,,0.00,weatherlink.com 1.10,2013-08-26 13:40:00,
2013-08-26 08:55:00,75.3,68.0,30.05,WSW,242,6.0,13.0,77,0.00,,,0.00,weatherlink.com 1.10,2013-08-26 13:55:00,
2013-08-26 09:10:00,75.8,68.0,30.05,SW,232,5.0,9.0,77,0.00,,,0.00,weatherlink.com 1.10,2013-08-26 14:10:00,
2013-08-26 09:25:00,75.9,68.0,30.07,West,262,3.0,8.0,77,0.00,,,0.00,weatherlink.com 1.10,2013-08-26 14:25:00,
2013-08-26 09:40:00,76.6,69.0,30.08,NW,305,1.0,9.0,77,0.00,,,0.00,weatherlink.com 1.10,2013-08-26 14:40:00,
2013-08-26 09:55:00,78.0,70.0,30.08,WSW,255,6.0,10.0,76,0.00,,,0.00,weatherlink.com 1.10,2013-08-26 14:55:00,
2013-08-26 10:10:00,78.3,70.0,30.07,West,271,5.0,11.0,75,0.00,,,0.00,weatherlink.com 1.10,2013-08-26 15:10:00,
2013-08-26 10:25:00,78.3,70.0,30.06,West,262,6.0,9.0,76,0.00,,,0.00,weatherlink.com 1.10,2013-08-26 15:25:00,
2013-08-26 10:40:00,78.5,70.0,30.06,WNW,297,2.0,6.0,76,0.00,,,0.00,weatherlink.com 1.10,2013-08-26 15:40:00,
2013-08-26 10:55:00,78.3,70.0,30.06,WSW,252,7.0,7.0,75,0.00,,,0.00,weatherlink.com 1.10,2013-08-26 15:55:00,
2013-08-26 11:10:00,78.3,70.0,30.07,WSW,257,4.0,5.0,75,0.00,,,0.00,weatherlink.com 1.10,2013-08-26 16:10:00,
2013-08-26 11:25:00,78.5,70.0,30.06,West,271,1.0,5.0,76,0.00,,,0.00,weatherlink.com 1.10,2013-08-26 16:25:00,
2013-08-26 11:40:00,79.2,70.0,30.05,WSW,256,4.0,4.0,74,0.00,,,0.00,weatherlink.com 1.10,2013-08-26 16:40:00,
2013-08-26 11:55:00,80.7,70.0,30.05,East,91,1.0,4.0,70,0.00,,,0.00,weatherlink.com 1.10,2013-08-26 16:55:00,
2013-08-26 12:10:00,82.1,71.0,30.03,SW,229,3.0,3.0,69,0.00,,,0.00,weatherlink.com 1.10,2013-08-26 17:10:00,
2013-08-26 12:25:00,82.5,71.0,30.02,ESE,116,1.0,5.0,69,0.00,,,0.00,weatherlink.com 1.10,2013-08-26 17:25:00,
2013-08-26 12:40:00,83.8,71.0,30.00,NNE,33,2.0,5.0,66,0.00,,,0.00,weatherlink.com 1.10,2013-08-26 17:40:00,
2013-08-26 12:55:00,84.1,72.0,29.99,WSW,248,2.0,9.0,67,0.00,,,0.00,weatherlink.com 1.10,2013-08-26 17:55:00,
2013-08-26 13:10:00,84.8,72.0,29.98,WSW,248,1.0,7.0,65,0.00,,,0.00,weatherlink.com 1.10,2013-08-26 18:10:00,
2013-08-26 13:25:00,85.7,71.0,29.97,SW,233,11.0,11.0,62,0.00,,,0.00,weatherlink.com 1.10,2013-08-26 18:25:00,
2013-08-26 13:40:00,85.3,72.0,29.96,WSW,243,3.0,9.0,64,0.00,,,0.00,weatherlink.com 1.10,2013-08-26 18:40:00,
2013-08-26 13:56:00,85.7,72.0,29.96,WSW,253,8.0,8.0,63,0.00,,,0.00,weatherlink.com 1.10,2013-08-26 18:56:00,
2013-08-26 14:11:00,85.5,72.0,29.95,SSW,212,3.0,10.0,64,0.00,,,0.00,weatherlink.com 1.10,2013-08-26 19:11:00,
2013-08-26 14:26:00,85.9,73.0,29.95,West,264,12.0,13.0,65,0.00,,,0.00,weatherlink.com 1.10,2013-08-26 19:26:00,
2013-08-26 14:41:00,86.3,74.0,29.95,SSW,210,5.0,10.0,67,0.00,,,0.00,weatherlink.com 1.10,2013-08-26 19:41:00,
2013-08-26 14:56:00,87.5,75.0,29.94,SW,229,5.0,11.0,66,0.00,,,0.00,weatherlink.com 1.10,2013-08-26 19:56:00,
2013-08-26 15:11:00,87.4,75.0,29.94,WSW,248,5.0,12.0,66,0.00,,,0.00,weatherlink.com 1.10,2013-08-26 20:11:00,
2013-08-26 15:26:00,87.1,74.0,29.94,WSW,249,7.0,14.0,65,0.00,,,0.00,weatherlink.com 1.10,2013-08-26 20:26:00,
2013-08-26 15:41:00,87.6,75.0,29.93,SW,235,7.0,13.0,66,0.00,,,0.00,weatherlink.com 1.10,2013-08-26 20:41:00,
2013-08-26 15:56:00,88.3,74.0,29.93,SW,221,8.0,15.0,62,0.00,,,0.00,weatherlink.com 1.10,2013-08-26 20:56:00,
2013-08-26 16:11:00,87.8,75.0,29.93,SSW,198,8.0,14.0,65,0.00,,,0.00,weatherlink.com 1.10,2013-08-26 21:11:00,
2013-08-26 16:26:00,88.3,75.0,29.93,West,267,9.0,11.0,65,0.00,,,0.00,weatherlink.com 1.10,2013-08-26 21:26:00,
2013-08-26 16:41:00,88.5,75.0,29.93,WSW,257,7.0,12.0,65,0.00,,,0.00,weatherlink.com 1.10,2013-08-26 21:41:00,
2013-08-26 16:56:00,88.9,76.0,29.93,SSW,212,5.0,10.0,66,0.00,,,0.00,weatherlink.com 1.10,2013-08-26 21:56:00,
2013-08-26 17:11:00,89.0,77.0,29.93,WSW,257,7.0,9.0,67,0.00,,,0.00,weatherlink.com 1.10,2013-08-26 22:11:00,
2013-08-26 17:26:00,89.3,77.0,29.93,WSW,243,3.0,10.0,66,0.00,,,0.00,weatherlink.com 1.10,2013-08-26 22:26:00,
2013-08-26 17:41:00,88.7,77.0,29.92,WSW,250,8.0,12.0,68,0.00,,,0.00,weatherlink.com 1.10,2013-08-26 22:41:00,
2013-08-26 17:56:00,88.6,76.0,29.92,WSW,242,7.0,11.0,66,0.00,,,0.00,weatherlink.com 1.10,2013-08-26 22:56:00,
2013-08-26 18:11:00,88.0,76.0,29.91,West,270,8.0,11.0,67,0.00,,,0.00,weatherlink.com 1.10,2013-08-26 23:11:00,
2013-08-26 18:26:00,87.4,75.0,29.91,WNW,288,4.0,10.0,67,0.00,,,0.00,weatherlink.com 1.10,2013-08-26 23:26:00,
2013-08-26 18:41:00,86.8,75.0,29.91,West,259,6.0,9.0,68,0.00,,,0.00,weatherlink.com 1.10,2013-08-26 23:41:00,
2013-08-26 18:56:00,86.1,75.0,29.91,WSW,248,4.0,7.0,70,0.00,,,0.00,weatherlink.com 1.10,2013-08-26 23:56:00,
2013-08-26 19:11:00,85.0,75.0,29.91,West,278,3.0,7.0,72,0.00,,,0.00,weatherlink.com 1.10,2013-08-27 00:11:00,
2013-08-26 19:26:00,84.1,75.0,29.91,WSW,239,2.0,7.0,74,0.00,,,0.00,weatherlink.com 1.10,2013-08-27 00:26:00,
2013-08-26 19:41:00,83.2,75.0,29.90,SW,232,0.0,3.0,76,0.00,,,0.00,weatherlink.com 1.10,2013-08-27 00:41:00,
2013-08-26 19:56:00,82.2,75.0,29.91,SW,226,0.0,2.0,78,0.00,,,0.00,weatherlink.com 1.10,2013-08-27 00:56:00,
2013-08-26 20:11:00,81.6,75.0,29.92,SW,236,0.0,2.0,79,0.00,,,0.00,weatherlink.com 1.10,2013-08-27 01:11:00,
2013-08-26 20:26:00,81.0,74.0,29.92,SW,228,2.0,2.0,80,0.00,,,0.00,weatherlink.com 1.10,2013-08-27 01:26:00,
2013-08-26 20:41:00,80.7,74.0,29.92,WSW,253,2.0,3.0,80,0.00,,,0.00,weatherlink.com 1.10,2013-08-27 01:41:00,
2013-08-26 20:56:00,80.3,74.0,29.92,WSW,248,4.0,4.0,81,0.00,,,0.00,weatherlink.com 1.10,2013-08-27 01:56:00,
2013-08-26 21:11:00,80.2,74.0,29.92,WSW,245,3.0,6.0,80,0.00,,,0.00,weatherlink.com 1.10,2013-08-27 02:11:00,
2013-08-26 21:26:00,80.0,73.0,29.92,West,278,2.0,6.0,80,0.00,,,0.00,weatherlink.com 1.10,2013-08-27 02:26:00,
2013-08-26 21:41:00,79.8,73.0,29.92,WSW,245,4.0,6.0,80,0.00,,,0.00,weatherlink.com 1.10,2013-08-27 02:41:00,
2013-08-26 21:56:00,79.4,73.0,29.92,SW,225,4.0,6.0,80,0.00,,,0.00,weatherlink.com 1.10,2013-08-27 02:56:00,
2013-08-26 22:11:00,79.0,72.0,29.93,SW,224,2.0,7.0,80,0.00,,,0.00,weatherlink.com 1.10,2013-08-27 03:11:00,
2013-08-26 22:26:00,79.0,72.0,29.92,WSW,242,2.0,5.0,79,0.00,,,0.00,weatherlink.com 1.10,2013-08-27 03:26:00,
2013-08-26 22:41:00,78.7,72.0,29.92,West,266,3.0,5.0,79,0.00,,,0.00,weatherlink.com 1.10,2013-08-27 03:41:00,
2013-08-26 22:56:00,78.6,72.0,29.92,SSW,200,2.0,5.0,79,0.00,,,0.00,weatherlink.com 1.10,2013-08-27 03:56:00,
2013-08-26 23:11:00,78.6,72.0,29.92,WSW,239,3.0,6.0,79,0.00,,,0.00,weatherlink.com 1.10,2013-08-27 04:11:00,
2013-08-26 23:26:00,79.1,71.0,29.92,WSW,242,8.0,9.0,77,0.00,,,0.00,weatherlink.com 1.10,2013-08-27 04:26:00,
2013-08-26 23:41:00,79.6,72.0,29.91,WSW,248,8.0,9.0,77,0.00,,,0.00,weatherlink.com 1.10,2013-08-27 04:41:00,
2013-08-26 23:56:00,79.6,72.0,29.91,SW,232,3.0,10.0,77,0.00,,,0.00,weatherlink.com 1.10,2013-08-27 04:56:00,